"Pseudo-MPEC" for A11aCVf

Created 2024 Sep 8 17:22:02 UT using Find_Orb

Click here for an explanation of pseudo-MPECs

 
 Astrometry: 
     A11aCVf* C2024 09 03\Fw`kii,\u]NEqh[@vVqQ]j='U1o@m;.a-wmAstrometryCLPaUOT05
     A11aCVf  C2024 09 03ALqln3redacted;=EJ-bQbsG]@U(W%J_,Ta^AgUx3IeQH5^d@G7gT05
     A11aCVf  C2024 09 03^X^9:oUt@:N:A25clickbhgukRLng1X.2pOp(gcB]W2v+q;Y`]UQT05
     A11aCVf  C2024 09 035'E#lXehereXN:(0\k,?c#vuS'!Kyq*_T9kiu6FgH1v(`btform'T05
     A11aCVf  C2024 09 03]JW3#^4N8+3w9Lh)!Y)i'oiXuKrexplanation]ye7iuJm38uKD.T05

Station data:
(T05) ATLAS-HKO, Haleakala  (N20.707551 W156.257010)  US/Hawaii.  Observers
   L. Denneau, A. Heinze, H. Weiland, J. Tonry, H. Flewelling, A.
   Fitzsimmons, D. Young, B. Stalder. Measurers L. Denneau, A. Heinze, J.
   Tonry. 0.5-m f/2.0 Schmidt + CCD.

Orbital elements:  A11aCVf
   Perigee 2024 Sep 4.13055 +/- 0.0267 TT =  3:07:59 (JD 2460557.63055)
Epoch 2024 Sep  4.0 TT = JDT 2460557.5                           AutoNEOCP
M 316.71073109 +/- 7                (J2000 equator)
n 331.58297901 +/- 13.2             Peri.  192.18572 +/- 1.2
a 44621.2795 +/- 1184               Node    52.67077 +/- 0.27
e   0.5373499 +/- 0.0184            Incl.    7.20569 +/- 0.047
P1563.380m/1.086d          H 28.28  G  0.15   U 14.5
q 20644.0367 +/- 1370    Q 68598.5223 +/- 1e+3
From 5 observations 2024 Sept. 3 (51.4 min); mean residual 0".09
Residuals in arcseconds: 
240903 T05  .03-  .01-    240903 T05  .21+  .07+    240903 T05  .02+  .01+    
240903 T05  .07-  .03-    240903 T05  .14-  .05-    

Ephemerides (geocentric):
Date (UTC) HH   RA             Dec           delta  r     elong  mag " sig PA
---- --------  ------------   ------------  ------ ------ -----  --- --------
2024 09 08 17  01 26 00.110   -03 44 23.26   51909 1.0076 145.9 12.4  23d  84
2024 09 08 18  01 57 31.828   -02 51 17.46   56281 1.0076 138.0 12.8  19d  83
2024 09 08 19  02 24 47.995   -02 02 39.11   59941 1.0076 131.2 13.1 949'  83
2024 09 08 20  02 49 10.256   -01 17 39.02   62924 1.0075 125.1 13.4 828'  83
2024 09 08 21  03 11 32.756   -00 35 31.45   65259 1.0075 119.5 13.7 744'  83
2024 09 08 22  03 32 33.940   +00 04 22.66   66971 1.0075 114.2 13.9 686'  83
2024 09 08 23  03 52 43.062   +00 42 36.17   68075 1.0074 109.2 14.1 646'  83
2024 09 09 00  04 12 24.099   +01 19 36.99   68583 1.0074 104.3 14.2 622'  83
2024 09 09 01  04 31 58.370   +01 55 49.24   68501 1.0073  99.4 14.4 610'  83
2024 09 09 02  04 51 46.546   +02 31 34.22   67826 1.0073  94.4 14.6 610'  83
2024 09 09 03  05 12 10.534   +03 07 10.93   66554 1.0072  89.3 14.7 622'  83
2024 09 09 04  05 33 35.608   +03 42 56.10   64670 1.0072  84.0 14.9 647'  84
2024 09 09 05  05 56 33.310   +04 19 03.17   62156 1.0071  78.3 15.1 688'  84
2024 09 09 06  06 21 45.927   +04 55 39.23   58987 1.0071  72.0 15.3 750'  85
2024 09 09 07  06 50 14.109   +05 32 37.12   55131 1.0070  64.9 15.6 841'  85
2024 09 09 08  07 23 30.938   +06 09 15.12   50552 1.0070  56.7 16?? 974'  86
2024 09 09 09  08 04 09.998   +06 43 22.83   45222 1.0070  46.6 16??  20d  87
2024 09 09 10  08 56 45.770   +07 08 44.35   39146 1.0069  33.6 18??  25d  89
2024 09 09 11  10 10 10.066   +07 06 48.97   32460 1.0069  15.5 22??  34d  91
2024 09 09 12  12 02 01.570   +05 42 21.28   25768 1.0070  12.5 24??  50d  94
2024 09 09 13  14 56 47.266   +01 03 12.84   21091 1.0070  56.2 14??  78d  97
2024 09 09 14  18 27 46.668   -05 04 09.50   21781 1.0072 109.2 11.6 109d  95
2024 09 09 15  21 08 11.469   -07 11 34.10   27202 1.0073 149.0 10.9 114d  91
2024 09 09 16  22 49 22.508   -06 48 10.22   33997 1.0073 174.0 Sha   90d  88
2024 09 09 17  23 56 44.421   -05 48 33.04   40573 1.0073 169.0 11.1  60d  86
2024 09 09 18  00 45 48.218   -04 45 51.33   46486 1.0073 156.9 11.9  41d  85
2024 09 09 19  01 24 14.488   -03 47 20.35   51646 1.0073 147.3 12.4  30d  84
2024 09 09 20  01 56 03.316   -02 53 54.48   56059 1.0073 139.3 12.8  24d  83
2024 09 09 21  02 23 30.902   -02 04 59.47   59759 1.0073 132.5 13.1  20d  83
2024 09 09 22  02 48 00.946   -01 19 45.97   62779 1.0073 126.3 13.4  17d  83
2024 09 09 23  03 10 28.736   -00 37 27.76   65149 1.0072 120.7 13.6 916'  83
2024 09 10 00  03 31 33.381   +00 02 34.70   66895 1.0072 115.5 13.8 839'  83
2024 09 10 01  03 51 44.522   +00 40 54.65   68033 1.0071 110.4 14.0 786'  83
2024 09 10 02  04 11 26.351   +01 18 00.28   68574 1.0071 105.5 14.2 753'  83
2024 09 10 03  04 31 00.272   +01 54 15.93   68524 1.0070 100.6 14.4 735'  83
2024 09 10 04  04 50 46.940   +02 30 03.05   67883 1.0070  95.7 14.5 732'  83
2024 09 10 05  05 11 08.137   +03 05 40.77   66644 1.0069  90.6 14.7 742'  83
2024 09 10 06  05 32 28.879   +03 41 25.95   64795 1.0069  85.3 14.9 768'  84
2024 09 10 07  05 55 20.256   +04 17 32.25   62317 1.0068  79.6 15.0 811'  84
2024 09 10 08  06 20 23.785   +04 54 07.21   59184 1.0068  73.3 15.3 878'  85
2024 09 10 09  06 48 38.796   +05 31 04.74   55367 1.0067  66.3 15.5 975'  85
2024 09 10 10  07 21 35.987   +06 07 45.86   50830 1.0067  58.1 15??  19d  86
2024 09 10 11  08 01 44.380   +06 42 07.43   45542 1.0067  48.2 16??  22d  87
2024 09 10 12  08 53 29.074   +07 08 14.63   39506 1.0066  35.4 17??  28d  89
2024 09 10 13  10 05 21.630   +07 08 41.88   32844 1.0066  17.7 21??  37d  91
2024 09 10 14  11 54 23.336   +05 51 18.36   26118 1.0067   9.6 26??  54d  94
2024 09 10 15  14 45 22.869   +01 24 34.72   21236 1.0067  52.3 14??  83d  97
2024 09 10 16  18 16 52.062   -04 49 27.56   21581 1.0069 105.5 11.7 118d  95